User: anonymous   Login
Location: Unspecified
(0.0000°N, 0.0000°E)
Time: 03:38:47
(UTC+00:00)
Language:

AIST 2D - Orbit

View from above orbital plane
View from above orbital plane
View from above satellite
View from above satellite

Ground track
Ground track

The orbit data is extracted from the following two-line orbital elements,

1 41465U 16026B   18295.80891141  .00001230  00000-0  40822-4 0  9998
2 41465  97.2078 192.2807 0009494 260.7476 183.2688 15.33082344138890
Epoch (UTC): 22 October 2018 19:24:49
Eccentricity: 0.0009494
inclination: 97.2078°
perigee height: 460 km
apogee height: 473 km
right ascension of ascending node: 192.2807°
argument of perigee: 260.7476°
revolutions per day: 15.33082344
mean anomaly at epoch: 183.2688°
orbit number at epoch: 13889

The dashed part of the orbit path shows where the satellite is in the earth's shadow,  

DLR